"Pseudo-MPEC" for CCNELJ2
Created 2025 Jan 13 16:31:03 UT using Find_Orb
Click here for an explanation of pseudo-MPECs
Astrometry:
CCNELJ2*1C2025 01 03.32336407 11 43.822+15 40 58.15 ~138l 21.02GVNEOCPG96
CCNELJ2 1C2025 01 03.32849307 11 47.216+15 42 04.14 ~138l 20.49GVNEOCPG96
CCNELJ2 1C2025 01 03.33363307 11 50.669+15 43 11.46 ~138l 21.15GVNEOCPG96
CCNELJ2 C2025 01 03.43247 07 12 56.01 +16 03 27.9 ~1832 VNEOCPI52
CCNELJ2 C2025 01 03.43450 07 12 57.42 +16 03 50.9 ~1832 22.0 GVNEOCPI52
CCNELJ2 1C2025 01 03.48897607 13 34.020+16 14 12.00 ~13CH 21.32GVNEOCPG96
CCNELJ2 1C2025 01 03.48994107 13 34.680+16 14 22.90 ~13CH 21.04GVNEOCPG96
CCNELJ2 1C2025 01 03.49090707 13 35.390+16 14 33.50 ~13CH 20.94GVNEOCPG96
CCNELJ2 1C2025 01 03.49187307 13 36.000+16 14 44.20 ~13CH 21.75GVNEOCPG96
CCNELJ2 C2025 01 03.51227007 14 02.356+16 20 47.01 ~1B1H 21.02GVNEOCPF51
CCNELJ2 C2025 01 03.52510307 14 09.898+16 23 09.51 ~1B1H 20.70GVNEOCPF51
CCNELJ2 C2025 01 03.53783507 14 17.411+16 25 29.44 ~1B1H 21.81GVNEOCPF51
CCNELJ2 C2025 01 03.55056207 14 24.923+16 27 46.63 ~1B1H 20.94GVNEOCPF51
CCNELJ2 KC2025 01 04.24453207 21 43.050+18 11 15.19 ~182V 21.1 GVNEOCPI52
CCNELJ2 KC2025 01 04.25303007 21 46.213+18 12 19.40 ~182V 20.9 GVNEOCPI52
CCNELJ2 KC2025 01 04.26114507 21 49.202+18 13 20.18 ~182V 21.2 GVNEOCPI52
Station data:
(F51) Pan-STARRS 1, Haleakala (N20.707234 W156.255910) US/Hawaii.
Observers J. Bulger, T. Lowe, A. Schultz, M. Willman. Measurers K.
Chambers, S. Chastel, T. de Boer, L. Denneau, J. Fairlamb, H. Flewelling,
M. Huber, C.-C. Lin, E. Magnier, Y. Ramanjooloo, R. Wainscoat, R. Weryk.
1.8-m Ritchey-Chrétien + CCD.
(G96) Mt. Lemmon Survey (N32.442729 W110.788720) US/Arizona. Observer E.
J. Christensen. + 10K CCD.
(I52) Steward Observatory, Mt. Lemmon Station (N32.442570 W110.788920)
US/Arizona. Observers T. A. Pruyne, B. M. Africano, E. J. Christensen, G.
A. Farneth, D. C. Fuls, A. R. Gibbs, A. D. Grauer, H. Gröller, J. A.
Johnson, R. A. Kowalski, S. M. Larson, G. J. Leonard, D. Rankin, R. L.
Seaman, F. C. Shelly, K. W. Wierzchoś. 1.0-m prime focus + CCD.
Orbital elements: CCNELJ2
Perihelion 2024 Nov 19.70460 +/- 0.0121 TT = 16:54:37 (JD 2460634.20460)
Epoch 2025 Jan 4.0 TT = JDT 2460679.5 Earth MOID: 0.0038 Ve: 0.0954
M 21.05873577 +/- 0.037 Ma: 0.0096 AutoNEOCP
n 0.46491991 +/- 0.000703 Peri. 292.48466 +/- 0.009
a 1.65025331 +/- 0.00166 Node 107.32743 +/- 0.0019
e 0.5039088 +/- 0.000586 Incl. 1.72406 +/- 0.0022
P 2.120/774.312d H 29.23 G 0.15 U 7.9
q 0.81867609 +/- 0.000149 Q 2.48183053 +/- 0.00347 (J2000 ecliptic)
From 16 observations 2025 Jan. 3-4 (22.5 hr); mean residual 0".36
Residuals in arcseconds: 250103 G96 .86+ .44+ 250103 G96 .12+ .19+ 250103 F51 .11+ .11+ 250103 G96 .01+ .46- 250103 G96 .86+ .07+ 250104 I52 .06+ .11+ 250103 G96 .07+ .17+ 250103 G96 .16+ .06+ 250104 I52 .01- .02- 250103 I52 1.1- .20+ 250103 F51 .26- .35- 250104 I52 .01- .18- 250103 I52 .20- .55- 250103 F51 .11- .17- 250103 G96 .08+ .01+ 250103 F51 .21+ .41+ Ephemerides (geocentric): Date (UTC) HH RA Dec delta r elong mag " sig PA ---- -------- ------------ ------------ ------ ------ ----- --- -------- 2025 01 13 17 07 43 28.219 +23 28 07.20 .09457 1.0781 177.9 24.5 3.69 53 2025 01 13 18 07 43 29.797 +23 28 28.85 .09488 1.0784 177.9 24.5 3.70 53 2025 01 13 19 07 43 31.365 +23 28 50.35 .09519 1.0787 177.9 24.5 3.71 53 2025 01 13 20 07 43 32.922 +23 29 11.70 .09550 1.0790 177.9 24.5 3.71 53 2025 01 13 21 07 43 34.470 +23 29 32.90 .09581 1.0793 177.8 24.5 3.72 53 2025 01 13 22 07 43 36.007 +23 29 53.95 .09612 1.0796 177.8 24.5 3.73 53 2025 01 13 23 07 43 37.535 +23 30 14.85 .09643 1.0799 177.8 24.6 3.73 53 2025 01 14 00 07 43 39.053 +23 30 35.61 .09674 1.0802 177.8 24.6 3.74 53 2025 01 14 01 07 43 40.561 +23 30 56.22 .09705 1.0806 177.8 24.6 3.75 53 2025 01 14 02 07 43 42.059 +23 31 16.69 .09736 1.0809 177.8 24.6 3.75 53 2025 01 14 03 07 43 43.548 +23 31 37.02 .09767 1.0812 177.8 24.6 3.76 53 2025 01 14 04 07 43 45.027 +23 31 57.20 .09799 1.0815 177.8 24.6 3.76 53 2025 01 14 05 07 43 46.497 +23 32 17.25 .09830 1.0818 177.8 24.6 3.77 53 2025 01 14 06 07 43 47.958 +23 32 37.16 .09861 1.0821 177.8 24.6 3.78 53 2025 01 14 07 07 43 49.410 +23 32 56.93 .09892 1.0824 177.8 24.6 3.78 53 2025 01 14 08 07 43 50.853 +23 33 16.57 .09923 1.0827 177.7 24.6 3.79 53 2025 01 14 09 07 43 52.287 +23 33 36.07 .09954 1.0831 177.7 24.6 3.79 53 2025 01 14 10 07 43 53.711 +23 33 55.43 .09986 1.0834 177.7 24.6 3.80 53 2025 01 14 11 07 43 55.127 +23 34 14.67 .10017 1.0837 177.7 24.7 3.81 53 2025 01 14 12 07 43 56.535 +23 34 33.77 .10048 1.0840 177.7 24.7 3.81 53 2025 01 14 13 07 43 57.934 +23 34 52.74 .10079 1.0843 177.7 24.7 3.82 53 2025 01 14 14 07 43 59.324 +23 35 11.59 .10110 1.0846 177.7 24.7 3.82 53 2025 01 14 15 07 44 00.706 +23 35 30.30 .10142 1.0849 177.6 24.7 3.83 53 2025 01 14 16 07 44 02.079 +23 35 48.89 .10173 1.0852 177.6 24.7 3.83 53 2025 01 14 17 07 44 03.444 +23 36 07.36 .10204 1.0856 177.6 24.7 3.84 53 2025 01 14 18 07 44 04.801 +23 36 25.69 .10235 1.0859 177.6 24.7 3.85 53 2025 01 14 19 07 44 06.150 +23 36 43.91 .10267 1.0862 177.6 24.7 3.85 53 2025 01 14 20 07 44 07.491 +23 37 02.00 .10298 1.0865 177.6 24.7 3.86 53 2025 01 14 21 07 44 08.823 +23 37 19.97 .10329 1.0868 177.5 24.7 3.86 53 2025 01 14 22 07 44 10.148 +23 37 37.82 .10360 1.0871 177.5 24.7 3.87 53 2025 01 14 23 07 44 11.466 +23 37 55.55 .10392 1.0874 177.5 24.8 3.87 53 2025 01 15 00 07 44 12.775 +23 38 13.16 .10423 1.0878 177.5 24.8 3.88 53 2025 01 15 01 07 44 14.077 +23 38 30.65 .10454 1.0881 177.5 24.8 3.88 53 2025 01 15 02 07 44 15.371 +23 38 48.03 .10486 1.0884 177.4 24.8 3.89 53 2025 01 15 03 07 44 16.658 +23 39 05.29 .10517 1.0887 177.4 24.8 3.90 53 2025 01 15 04 07 44 17.937 +23 39 22.43 .10548 1.0890 177.4 24.8 3.90 53 2025 01 15 05 07 44 19.209 +23 39 39.46 .10580 1.0893 177.4 24.8 3.91 53 2025 01 15 06 07 44 20.473 +23 39 56.38 .10611 1.0896 177.3 24.8 3.91 53 2025 01 15 07 07 44 21.731 +23 40 13.18 .10643 1.0900 177.3 24.8 3.92 53 2025 01 15 08 07 44 22.981 +23 40 29.88 .10674 1.0903 177.3 24.8 3.92 53 2025 01 15 09 07 44 24.224 +23 40 46.46 .10705 1.0906 177.3 24.8 3.93 53 2025 01 15 10 07 44 25.460 +23 41 02.93 .10737 1.0909 177.3 24.8 3.93 53 2025 01 15 11 07 44 26.689 +23 41 19.30 .10768 1.0912 177.2 24.9 3.94 53 2025 01 15 12 07 44 27.912 +23 41 35.55 .10800 1.0915 177.2 24.9 3.94 53 2025 01 15 13 07 44 29.127 +23 41 51.70 .10831 1.0918 177.2 24.9 3.95 53 2025 01 15 14 07 44 30.336 +23 42 07.75 .10863 1.0922 177.2 24.9 3.95 53 2025 01 15 15 07 44 31.538 +23 42 23.69 .10894 1.0925 177.1 24.9 3.96 53 2025 01 15 16 07 44 32.734 +23 42 39.52 .10925 1.0928 177.1 24.9 3.96 53